Погода в Вендичанах

Украина / Винницкая область     48°36′54″N   27°47′40″E
темп.,
°C
ветер,
м/с
пор.,
м/с
влажн.,
%
обл.,
%
осадки,
мм/ч
давл.,
гПа
погр.,
м
28 октября, чт
чт2800:00+6зсз118224 0.0 102810
03:00+6зюз1184100 0.0 102710
06:00+5з128726 0.0 102711
09:00+7зсз128012 0.0 102856
12:00+13з3554100 0.0 1027512
15:00+15зсз45445 0.0 1026967
18:00+12зсз235698 0.0 102618
21:00+9ссв22745 0.0 102717
29 октября, пт
пт2900:00+9ссз11859 0.0 102710
03:00+8ссв118627 0.0 102710
06:00+9в018458 0.0 102710
09:00+10вюв127886 0.0 102881
12:00+15юв345959 0.0 1027688
15:00+17юв455235 0.0 10261204
18:00+13юв346622 0.0 102654
21:00+11юв35775 0.0 102674
30 октября, сб
сб3000:00+9юв36854 0.0 1027101
03:00+8юв37883 0.0 1027116
06:00+7юв36900 0.0 1027101
09:00+8юв311870 0.0 1028294
12:00+14ююв79540 0.0 1027809
15:00+16ююв79420 0.0 10261073
18:00+13юв510470 0.0 1026261
21:00+10юв513610 0.0 1026335
31 октября, вс
вс3100:00+9ююв513670 0.0 1027364
03:00+7юв412810 0.0 1026310
05:00+5юв311890 0.0 1026220
08:00+6юв411860 0.0 1026335
11:00+12ююв69560 0.0 1025708
14:00+14ююв67420 0.0 1023963
17:00+10юв37540 0.0 1023100
20:00+8вюв36620 0.0 102385
31 октября, вс
вс3123:00+7юв34670 0.0 102256
02:00+6вюв33720 0.0 102143
05:00+5вюв34760 0.0 102058
08:00+5вюв38800 0.0 1019193
11:00+11юв57570 0.0 1017612
14:00+14ююв68480 0.0 10151137
17:00+11юв48610 0.0 1014148
20:00+9юв411720 0.0 1014224